Wind_Speed
2 1 0 0 1 1 2 3 3 3 4 4 5 5 5 5 5 6 7 7 8 7 7 7 7 6 7 7 7 7 7 7 7 8 7 7 7 8 8 9 9 9 10 10 10 11 10 10 10
1 0 0 1 2 2 2 3 4 4 5 5 5 6 6 6 6 7 7 8 8 8 8 8 7 7 8 8 8 8 8 7 8 8 7 7 8 8 8 9 9 9 9 10 10 11 11 11 10
1 1 1 2 2 3 3 4 4 5 5 5 6 6 6 6 6 7 8 8 8 9 9 7 7 8 8 8 8 8 8 8 8 8 8 8 8 8 9 9 9 9 9 9 10 10 11 11 11
2 1 1 2 2 2 3 4 5 5 5 6 6 6 7 7 7 7 7 8 8 9 9 8 7 7 7 7 7 8 7 7 7 7 7 8 8 8 8 8 8 9 10 10 10 11 11 12 11
2 1 1 1 2 3 4 5 5 6 6 6 6 7 7 7 7 8 8 8 9 8 8 8 8 8 7 7 6 6 7 7 7 7 7 8 8 8 9 9 9 10 11 11 11 11 12 12 12
2 1 1 2 3 4 5 5 6 6 6 7 7 7 7 7 8 8 8 9 9 9 8 8 8 8 8 8 7 7 6 6 6 7 7 8 8 9 9 10 11 11 11 11 11 12 12 11 11
2 2 2 3 4 4 5 6 6 6 7 7 7 7 7 8 8 8 8 9 9 9 8 8 8 8 8 8 8 8 7 7 7 7 8 8 8 9 9 9 11 12 12 12 11 11 11 11 11
2 2 2 4 4 4 5 6 6 6 7 7 8 8 7 7 7 8 8 9 9 9 9 8 8 8 8 8 8 9 8 7 7 8 8 8 9 9 10 10 10 10 11 11 11 11 11 11 12
3 3 4 4 4 5 5 5 6 7 7 7 7 8 8 8 7 8 9 9 9 9 9 9 9 8 7 7 8 8 8 7 8 9 9 9 9 9 9 9 9 9 10 10 11 11 11 11 11
3 4 4 5 5 5 5 5 6 6 6 7 7 7 7 8 8 8 9 9 9 9 9 9 9 8 7 7 8 8 7 7 8 9 9 9 9 9 9 8 9 9 10 10 10 11 11 12 12
4 4 5 5 5 5 5 5 5 6 6 6 7 7 7 8 8 8 8 8 9 9 9 9 9 8 8 8 8 8 8 8 9 9 9 9 9 9 9 9 9 10 11 11 11 11 10 11 11
4 4 5 5 5 5 5 5 5 6 6 6 7 7 7 8 8 8 8 8 9 8 9 9 9 9 9 9 9 8 8 8 9 10 10 9 9 9 10 10 10 10 10 10 10 10 10 10 10
4 5 5 5 5 5 5 5 5 6 6 7 7 8 8 8 8 8 8 8 8 9 9 9 9 9 10 9 9 8 9 9 9 9 9 9 10 10 10 10 10 10 11 12 12 11 10 11 11
5 5 5 5 5 5 5 5 6 6 7 7 8 8 8 8 8 8 8 8 9 9 9 9 10 10 10 10 9 9 9 9 9 10 10 10 9 10 10 10 10 11 11 12 11 11 11 11 10
6 6 6 6 6 6 6 6 6 7 7 8 9 8 8 8 8 8 8 8 9 9 9 9 10 10 10 10 10 10 9 9 9 9 10 10 10 10 10 10 10 11 11 11 11 12 11 11 11
6 7 6 6 7 8 7 7 7 7 8 8 8 8 8 8 8 9 9 8 9 9 9 9 10 10 10 10 10 10 10 9 9 9 9 9 9 10 10 10 10 10 11 11 12 12 11 11 11
7 7 7 8 8 8 8 8 7 8 9 9 9 8 8 8 8 9 9 9 9 10 10 9 10 10 10 10 10 10 10 10 9 9 9 10 10 10 10 11 10 10 11 12 12 12 12 12 12
7 8 8 9 9 9 9 9 8 9 9 9 9 9 9 8 9 10 10 10 9 10 10 10 10 10 10 10 10 10 10 10 9 9 9 10 10 10 11 11 10 10 11 11 12 11 10 10 10
9 9 10 10 10 10 10 10 9 9 9 9 9 9 9 10 10 10 10 10 10 10 11 11 10 10 10 10 10 10 10 10 10 9 9 10 10 10 11 11 10 10 10 10 10 10 9 9 10
10 11 11 12 11 11 11 10 10 10 10 10 10 10 10 10 10 10 10 10 10 10 11 11 10 10 10 10 10 10 10 10 10 10 10 10 10 11 11 11 11 11 10 10 9 9 9 9 10
12 11 12 13 12 12 11 11 11 11 11 11 11 11 11 11 11 10 10 10 11 11 11 12 11 11 11 12 12 11 11 11 10 10 11 10 11 12 12 12 12 11 11 10 10 9 9 9 9
13 12 12 13 13 12 12 12 12 12 12 11 11 12 12 12 12 12 11 11 11 12 12 12 12 12 12 12 12 11 11 11 11 11 11 11 12 13 13 12 12 12 11 11 10 9 9 9 8
13 13 12 12 13 13 12 13 12 13 14 13 13 13 13 13 14 13 13 12 12 12 13 13 12 12 13 13 13 12 12 12 12 12 12 12 13 13 13 12 12 12 12 11 9 9 8 8 8
12 12 12 12 12 13 12 13 14 14 15 15 14 14 14 14 14 14 14 13 13 13 13 13 13 13 14 14 14 14 13 13 13 13 13 13 13 13 13 13 12 12 11 10 10 9 9 9 9
12 12 12 12 11 12 13 15 16 16 16 16 16 16 15 15 15 14 14 14 14 14 14 14 14 14 14 14 14 15 15 15 14 14 14 14 14 13 13 13 13 12 11 10 11 10 10 10 10
12 13 13 12 11 12 14 16 17 17 17 17 18 18 17 17 16 16 15 15 15 15 15 15 15 15 16 16 16 16 16 16 16 15 15 15 15 14 14 13 13 12 12 12 11 12 11 11 11
15 15 14 14 14 15 15 16 17 17 18 18 18 19 18 18 18 18 17 17 16 16 16 16 16 17 17 17 17 17 17 17 16 16 16 16 16 15 15 14 14 14 13 13 13 13 12 12 12
16 16 15 15 16 15 14 16 19 18 19 19 18 19 19 19 19 19 18 18 18 17 17 17 18 18 18 18 18 18 18 18 18 17 17 17 17 17 17 15 15 15 14 14 14 14 14 14 13
17 17 17 17 17 16 16 18 20 21 21 21 21 20 20 19 19 19 19 19 19 19 19 19 18 18 19 19 19 19 19 19 19 18 19 18 18 18 18 17 16 16 15 15 15 15 16 15 15
18 18 18 18 18 18 18 21 21 23 23 23 22 21 21 21 20 20 20 20 20 20 20 20 20 20 20 20 20 20 20 20 20 20 19 20 19 19 19 18 18 17 17 17 17 17 17 17 16
Wind_Direction
64 65 84 349 315 13 13 0 351 339 335 329 324 322 323 317 319 318 316 311 310 304 304 301 291 286 291 296 295 292 287 279 277 273 267 267 265 264 262 263 266 267 265 263 263 257 257 259 256
46 42 358 327 309 354 355 343 341 331 320 316 316 318 317 313 316 315 313 310 309 313 309 304 294 292 293 292 290 286 284 278 275 272 269 268 267 266 267 268 270 266 264 265 262 261 259 260 259
341 349 2 334 339 337 328 328 328 318 313 308 311 312 313 312 313 313 316 318 314 317 317 310 303 300 297 292 288 283 278 275 273 271 268 269 270 271 273 274 270 268 266 265 263 261 260 260 259
357 345 325 345 344 324 317 319 315 311 308 305 307 310 312 315 316 316 319 322 322 322 321 319 317 307 303 299 293 285 275 269 269 271 267 269 271 275 273 270 270 271 267 265 264 260 260 264 263
347 347 353 349 332 325 320 316 313 311 311 307 308 310 310 312 315 315 316 319 321 323 324 323 324 317 309 312 302 290 279 276 273 273 270 270 273 277 274 273 274 274 271 270 268 263 263 266 264
356 348 336 314 315 321 316 313 310 312 312 310 311 312 310 312 313 315 317 320 323 325 326 324 325 323 319 319 314 310 292 284 277 277 279 274 274 276 276 274 276 277 276 275 272 267 268 270 268
343 336 322 309 310 313 315 316 312 312 311 312 312 312 313 314 314 316 318 321 324 326 326 325 324 320 320 320 317 313 306 296 291 289 290 287 283 279 277 280 280 282 279 277 277 274 271 272 269
326 318 318 314 316 317 314 315 315 315 315 314 314 316 319 318 319 322 324 325 327 327 326 326 325 320 319 320 319 315 310 301 301 304 299 293 291 289 287 285 283 282 281 278 276 275 273 272 271
319 319 317 319 321 323 319 316 315 318 321 320 320 322 324 324 325 325 327 329 331 331 330 329 329 329 327 323 320 319 315 308 304 303 299 298 294 292 292 291 288 285 282 280 279 275 273 274 273
319 323 320 317 319 323 321 319 319 322 326 327 326 326 325 325 325 325 327 331 334 336 336 336 335 334 330 323 318 317 314 309 308 306 304 300 297 297 296 295 292 290 286 284 283 281 278 277 276
309 312 312 316 319 323 321 319 319 321 325 329 328 327 328 327 325 326 328 332 335 338 339 340 337 332 331 326 319 317 314 310 310 308 309 307 301 300 301 297 295 294 291 289 289 288 286 284 277
302 308 316 321 319 319 320 321 321 322 323 327 327 325 327 328 328 329 330 332 336 336 338 339 336 330 329 330 328 325 319 313 311 310 311 310 308 306 304 301 299 299 297 296 295 293 289 287 280
299 305 314 317 311 310 315 318 319 322 322 320 320 320 324 328 329 330 330 331 333 335 335 334 332 329 329 332 331 328 323 318 316 314 312 311 309 308 307 302 303 302 301 299 296 293 290 289 284
295 298 305 310 310 308 312 312 313 319 323 321 321 322 325 326 328 327 326 328 330 332 333 334 332 329 328 326 324 323 321 322 321 319 317 313 311 310 307 304 303 304 303 301 297 295 291 289 287
283 290 294 299 308 310 307 304 309 317 319 321 321 322 325 323 323 323 325 327 329 330 331 334 333 332 332 329 326 323 321 321 320 320 318 314 310 310 309 305 304 304 303 302 301 297 292 289 286
274 285 292 298 304 303 301 304 310 314 314 318 319 319 321 319 319 321 324 325 327 327 329 331 331 331 331 329 328 325 323 322 320 317 316 314 311 309 312 311 305 301 301 303 302 299 293 287 284
271 285 293 293 297 297 297 300 305 309 311 312 315 315 315 317 319 318 321 322 323 324 325 328 327 326 326 326 328 328 325 324 322 317 315 316 316 314 316 316 313 307 305 304 303 299 295 289 282
267 275 282 288 293 293 296 300 301 303 306 309 313 313 311 314 316 317 318 318 319 321 322 323 324 323 324 325 327 327 325 324 321 319 317 317 318 318 317 315 314 314 311 310 308 304 299 291 286
266 268 272 278 286 286 290 294 294 296 299 302 305 307 309 310 311 312 314 314 315 317 318 320 322 322 322 322 325 325 325 325 321 319 317 314 317 318 318 316 314 314 313 312 309 306 302 293 287
265 265 269 274 280 284 287 288 289 290 293 297 298 300 303 306 306 306 309 309 311 313 316 318 320 322 323 321 323 322 323 326 324 321 317 313 316 319 318 317 316 314 313 313 309 304 301 295 292
262 265 266 272 277 278 281 284 286 286 289 292 295 297 297 301 304 303 301 303 304 307 310 313 318 317 319 320 319 317 319 321 323 323 320 316 319 318 316 319 316 314 309 307 306 303 302 301 299
264 268 272 272 276 282 284 283 285 289 289 289 293 294 293 295 300 300 300 300 303 305 308 310 311 312 314 316 314 313 314 315 317 317 316 315 315 315 316 317 316 314 311 306 303 302 301 301 303
270 269 270 273 276 279 286 288 289 288 289 290 292 294 295 293 294 295 295 296 298 302 304 305 307 308 309 311 311 308 309 311 312 312 312 313 312 312 315 316 314 313 311 309 306 303 303 303 303
269 269 270 274 278 280 287 288 285 286 289 291 292 292 293 294 294 292 293 294 295 298 299 301 303 304 305 306 307 306 306 306 306 307 308 309 309 309 311 313 309 309 307 306 304 302 299 299 300
269 271 272 278 285 287 289 288 284 282 285 285 288 291 292 291 294 291 290 291 293 296 296 297 299 301 302 302 301 303 302 302 302 302 304 304 304 305 307 309 306 302 301 300 300 299 295 294 295
268 267 268 268 267 270 279 283 287 284 284 283 284 286 288 287 288 289 288 289 291 292 293 294 296 298 299 300 299 300 299 300 300 299 299 300 300 303 303 302 301 297 296 293 293 294 291 289 290
270 270 269 267 263 263 268 277 281 281 283 284 283 283 284 285 285 285 285 285 288 290 292 293 294 295 297 299 299 298 297 297 297 297 297 297 297 297 297 298 294 294 294 291 290 291 289 288 288
267 270 268 268 267 264 266 269 275 280 284 287 287 284 283 284 284 282 283 283 285 288 291 293 293 293 294 296 297 297 296 295 295 295 294 294 294 292 292 295 293 291 291 291 289 287 286 286 286
270 267 265 267 269 267 265 267 272 276 281 285 285 284 284 283 282 281 281 283 283 285 288 290 292 291 291 292 294 295 294 294 293 293 292 291 292 291 291 291 290 289 288 286 287 286 285 284 285
271 269 268 267 267 267 270 274 276 277 279 282 283 283 283 281 281 281 280 281 282 284 286 289 290 290 290 290 291 292 291 291 292 292 291 289 290 290 290 287 286 287 286 283 281 280 282 281 280
Height
5870 5870 5870 5871 5872 5871 5870 5870 5869 5869 5869 5869 5868 5868 5868 5867 5868 5869 5866 5865 5864 5864 5863 5863 5862 5862 5862 5861 5861 5861 5861 5861 5861 5861 5861 5861 5862 5862 5862 5863 5863 5863 5863 5864 5865 5865 5865 5865 5865
5870 5870 5871 5871 5871 5870 5870 5870 5869 5870 5869 5868 5868 5868 5867 5867 5867 5866 5865 5864 5864 5863 5862 5862 5861 5861 5861 5860 5860 5860 5860 5860 5860 5860 5860 5860 5861 5861 5861 5861 5861 5861 5862 5862 5863 5863 5864 5864 5864
5870 5870 5871 5871 5870 5870 5870 5869 5869 5869 5869 5868 5868 5868 5867 5867 5866 5865 5864 5864 5863 5862 5861 5860 5860 5860 5859 5859 5859 5858 5858 5858 5859 5859 5859 5859 5859 5859 5859 5859 5859 5860 5860 5861 5861 5862 5862 5862 5862
5871 5871 5871 5871 5870 5870 5869 5869 5869 5869 5868 5868 5867 5867 5866 5866 5865 5865 5864 5863 5863 5862 5861 5860 5859 5859 5858 5858 5857 5857 5857 5857 5857 5857 5858 5858 5858 5858 5858 5858 5858 5858 5858 5859 5859 5860 5860 5860 5860
5871 5871 5871 5870 5870 5870 5869 5869 5869 5868 5868 5867 5867 5866 5866 5865 5865 5864 5863 5863 5862 5861 5860 5859 5858 5858 5857 5857 5856 5856 5856 5856 5856 5856 5856 5856 5856 5857 5857 5856 5856 5856 5857 5857 5857 5858 5858 5858 5858
5871 5871 5871 5870 5870 5870 5869 5869 5868 5868 5867 5867 5866 5866 5865 5865 5864 5863 5862 5862 5861 5860 5859 5858 5858 5857 5857 5856 5855 5855 5855 5855 5855 5855 5855 5855 5855 5855 5855 5855 5855 5855 5855 5855 5855 5855 5856 5856 5856
5872 5871 5870 5870 5870 5869 5869 5868 5868 5867 5867 5866 5866 5865 5864 5864 5863 5863 5862 5861 5860 5859 5859 5858 5857 5856 5856 5855 5855 5854 5854 5854 5854 5854 5854 5854 5854 5854 5853 5853 5853 5853 5853 5853 5853 5853 5854 5854 5854
5871 5871 5870 5869 5869 5869 5868 5868 5867 5867 5866 5866 5865 5865 5864 5863 5863 5862 5861 5860 5859 5858 5858 5857 5856 5855 5855 5854 5854 5853 5853 5853 5853 5853 5853 5852 5852 5852 5852 5851 5851 5851 5851 5851 5851 5851 5851 5852 5852
5871 5872 5870 5869 5869 5868 5868 5867 5867 5866 5865 5865 5864 5864 5863 5863 5862 5861 5860 5860 5859 5858 5857 5856 5855 5854 5854 5854 5853 5853 5852 5852 5852 5851 5851 5851 5851 5850 5850 5850 5849 5849 5849 5849 5849 5849 5849 5849 5849
5870 5870 5869 5869 5868 5868 5867 5867 5866 5866 5865 5864 5864 5863 5862 5862 5861 5861 5860 5859 5858 5857 5856 5855 5854 5854 5853 5853 5852 5852 5851 5851 5850 5850 5850 5850 5849 5849 5849 5848 5848 5848 5847 5847 5847 5847 5847 5847 5847
5869 5869 5869 5868 5868 5867 5867 5866 5866 5865 5865 5864 5863 5863 5862 5861 5860 5860 5859 5858 5857 5856 5855 5854 5853 5853 5852 5852 5851 5851 5850 5850 5849 5849 5848 5848 5848 5847 5847 5847 5846 5846 5845 5845 5845 5845 5845 5845 5845
5869 5869 5868 5867 5867 5867 5866 5866 5865 5865 5865 5864 5863 5862 5861 5860 5860 5859 5858 5857 5857 5856 5855 5854 5853 5852 5851 5851 5850 5850 5849 5848 5848 5847 5847 5846 5846 5846 5845 5845 5844 5844 5843 5842 5842 5842 5842 5842 5842
5868 5868 5868 5867 5867 5866 5866 5865 5865 5864 5864 5863 5862 5861 5861 5860 5859 5858 5857 5857 5856 5855 5854 5853 5852 5851 5850 5850 5849 5848 5848 5847 5846 5846 5845 5845 5845 5844 5843 5843 5843 5842 5841 5840 5840 5840 5840 5840 5840
5867 5867 5867 5866 5866 5866 5865 5865 5865 5864 5863 5863 5862 5861 5860 5859 5858 5857 5857 5856 5855 5854 5853 5852 5851 5851 5850 5849 5848 5847 5847 5846 5845 5844 5844 5843 5843 5842 5842 5841 5841 5840 5840 5839 5838 5838 5837 5837 5837
5866 5867 5866 5866 5865 5865 5865 5865 5864 5863 5862 5862 5860 5859 5859 5858 5858 5857 5856 5855 5854 5853 5852 5852 5851 5850 5849 5848 5847 5846 5845 5845 5844 5843 5842 5842 5841 5841 5840 5840 5839 5838 5837 5836 5836 5835 5834 5834 5834
5865 5865 5865 5865 5864 5864 5865 5864 5863 5862 5861 5861 5860 5859 5858 5858 5857 5856 5855 5854 5854 5853 5852 5851 5850 5849 5848 5847 5846 5845 5844 5843 5843 5842 5841 5840 5840 5839 5838 5838 5837 5836 5835 5834 5833 5832 5831 5831 5831
5864 5864 5864 5864 5863 5863 5863 5862 5862 5861 5860 5860 5859 5858 5857 5857 5856 5855 5854 5853 5853 5852 5851 5850 5849 5848 5847 5846 5845 5844 5843 5842 5841 5840 5839 5839 5838 5837 5837 5836 5835 5834 5833 5831 5830 5829 5828 5828 5828
5862 5862 5862 5862 5862 5862 5861 5861 5860 5860 5859 5859 5858 5857 5856 5856 5855 5854 5853 5853 5852 5851 5849 5849 5848 5847 5846 5845 5844 5843 5842 5841 5840 5839 5838 5837 5837 5836 5835 5834 5833 5832 5831 5829 5828 5826 5825 5825 5825
5861 5861 5861 5860 5860 5860 5859 5859 5859 5858 5858 5857 5857 5856 5855 5855 5854 5853 5852 5851 5850 5850 5848 5847 5847 5846 5844 5843 5842 5841 5840 5839 5838 5838 5837 5836 5835 5834 5833 5832 5832 5831 5829 5828 5826 5825 5824 5823 5823
5858 5859 5859 5859 5858 5858 5857 5857 5857 5857 5856 5856 5856 5855 5854 5854 5853 5852 5851 5850 5849 5848 5847 5846 5845 5844 5843 5842 5841 5840 5839 5838 5837 5836 5835 5835 5834 5833 5832 5831 5830 5829 5827 5826 5825 5824 5823 5822 5821
5856 5857 5857 5856 5856 5855 5856 5856 5855 5855 5855 5854 5854 5853 5853 5852 5851 5851 5850 5849 5848 5847 5846 5845 5844 5843 5842 5841 5839 5838 5837 5836 5835 5834 5834 5833 5832 5831 5830 5829 5828 5827 5826 5824 5823 5822 5821 5821 5820
5854 5854 5854 5854 5854 5853 5853 5853 5853 5852 5852 5852 5852 5851 5851 5850 5849 5849 5848 5847 5846 5845 5844 5843 5842 5841 5840 5839 5838 5837 5836 5835 5834 5833 5832 5831 5830 5829 5828 5827 5825 5824 5823 5822 5821 5820 5819 5819 5818
5851 5851 5851 5851 5851 5851 5851 5851 5851 5850 5850 5850 5850 5849 5848 5848 5847 5846 5846 5845 5844 5844 5842 5841 5840 5839 5838 5837 5836 5835 5834 5833 5832 5831 5830 5829 5828 5827 5826 5825 5824 5823 5821 5820 5819 5819 5818 5817 5817
5849 5849 5849 5849 5849 5849 5849 5849 5849 5848 5847 5847 5847 5846 5846 5845 5845 5844 5843 5843 5842 5841 5840 5839 5838 5837 5836 5834 5833 5832 5831 5830 5829 5828 5828 5826 5825 5824 5823 5822 5821 5820 5819 5818 5817 5817 5816 5816 5815
5846 5847 5847 5846 5846 5847 5847 5847 5847 5846 5845 5845 5844 5843 5843 5843 5842 5841 5841 5840 5839 5838 5837 5837 5836 5835 5833 5832 5831 5830 5829 5828 5827 5826 5825 5824 5822 5821 5821 5820 5819 5818 5817 5816 5815 5815 5814 5814 5813
5843 5844 5845 5845 5845 5845 5845 5844 5844 5843 5842 5842 5841 5840 5840 5839 5839 5838 5838 5837 5836 5835 5834 5834 5833 5831 5830 5829 5828 5826 5826 5825 5823 5822 5822 5821 5819 5818 5818 5817 5816 5815 5814 5813 5813 5812 5812 5811 5811
5840 5840 5841 5841 5841 5842 5842 5841 5840 5839 5838 5838 5838 5837 5836 5836 5835 5835 5834 5833 5833 5832 5831 5830 5829 5828 5827 5825 5824 5823 5822 5821 5820 5819 5818 5817 5816 5815 5814 5813 5813 5812 5811 5810 5810 5809 5809 5808 5808
5837 5837 5837 5837 5837 5838 5839 5838 5836 5835 5835 5834 5834 5833 5832 5832 5831 5831 5830 5830 5829 5828 5827 5826 5825 5824 5823 5821 5820 5819 5818 5817 5816 5815 5814 5813 5812 5811 5810 5809 5809 5808 5807 5807 5806 5805 5805 5805 5805
5833 5833 5833 5833 5833 5834 5834 5836 5832 5831 5831 5830 5829 5828 5827 5827 5827 5827 5826 5825 5825 5824 5823 5821 5820 5819 5818 5817 5816 5815 5814 5812 5811 5810 5809 5808 5808 5807 5806 5805 5804 5804 5803 5803 5802 5801 5801 5801 5801
5827 5828 5829 5829 5829 5829 5830 5832 5828 5827 5826 5825 5824 5824 5823 5823 5822 5822 5821 5821 5820 5819 5818 5817 5816 5815 5813 5812 5811 5810 5809 5808 5806 5805 5804 5803 5803 5802 5801 5800 5800 5799 5798 5798 5798 5797 5797 5796 5796